Tracking 18851 objects as of 25-Nov-2017
HD Live streaming from Space Station
objects crossing your sky now

BPA 3/SL-24 R/B

Track BPA 3/SL-24 R/B now!
10-day predictions


NORAD ID: 39448
Int'l Code: 2013-066AJ
Perigee: 599.1 km
Apogee: 1,614.7 km
Inclination: 97.7 °
Period: 107.3 minutes
Semi major axis: 7477 km
RCS: Unknown
Launch date: November 21, 2013
Source: Commonwealth of Independent States (former USSR) (CIS)
Launch site: Orenburg, Russia (OREN)

Note: This is a ROCKET BODY
aabbcc
Your satellite tracking list
Your tracking list is empty




NASA's NSSDC Master Catalog

Two Line Element Set (TLE):
1 39448U 13066AJ  17328.54019646 +.00000000 +00000-0 +18018-4 0  9992
2 39448 097.7062 085.1759 0679084 307.2278 046.8722 13.42569586196283
Source of the keplerian elements: AFSPC